San Antonio, TX

2:26 AM CDT on July 22, 2017 (GMT -0500)
San Antonio International

Weather History for KSAT - August, 2012

Change the Weather History Date:

Wednesday, August 22, 2012

  Actual Average Record
Temperature  
Mean Temperature 83 °F 85 °F  
Max Temperature 93 °F 96 °F 103 °F (1948)
Min Temperature 72 °F 75 °F 63 °F (1946)
Degree Days  
Heating Degree Days 0 0  
Month to date heating degree days 0 0  
Since 1 June heating degree days 0 0  
Since 1 July heating degree days 0 0  
Cooling Degree Days 18 20  
Month to date cooling degree days 497 459  
Year to date cooling degree days 2592 2219  
Since 1 June cooling degree days 1736 1590  
Growing Degree Days 32 (Base 50)    
Moisture  
Dew Point 67 °F    
Average Humidity 63    
Maximum Humidity 84    
Minimum Humidity 41    
Precipitation  
Precipitation 0.00 in 0.08 in 3.83 in (1964)
Month to date precipitation 2.41 1.23  
Year to date precipitation 29.05 20.08  
Snow  
Snow 0.00 in - - ()
Month to date snowfall 0.0  
Since 1 June snowfall 0.0  
Since 1 July snowfall 0.0  
Snow Depth 0.00 in    
Sea Level Pressure  
Sea Level Pressure 29.97 in    
Wind  
Wind Speed 6 mph (ENE)    
Max Wind Speed 15 mph    
Max Gust Speed 20 mph    
Visibility 10 miles    
Events      
T = Trace of Precipitation, MM = Missing Value Source: NWS Daily Summary

Daily Weather History Graph

Daily Weather History Graph

Search for Another Location

Airport or City:

Trip Planner

Search our weather history database for the weather conditions in past years. The results will help you decide how hot, cold, wet, or windy it might be!

Date:

Astronomy

Aug. 22, 2012 Rise Set
Actual Time 7:06 AM CDT 8:06 PM CDT
Civil Twilight 6:41 AM CDT 8:31 PM CDT
Nautical Twilight 6:12 AM CDT 9:00 PM CDT
Astronomical Twilight 5:42 AM CDT 9:30 PM CDT
Moon 12:15 PM CDT 11:22 PM CDT
Length of Visible Light 13h 49m
Length of Day
13h 00m
Waxing Crescent, 29% of the Moon is Illuminated
Aug 22
Waxing Crescent
Aug 24
First Quarter
Aug 31
Full
Sep 8
Last Quarter
Sep 15
New

Hourly Weather History & Observations

Time (CDT) Temp. Heat Index Dew Point Humidity Pressure Visibility Wind Dir Wind Speed Gust Speed Precip Events Conditions
12:53 AM 73.9 °F - 68.0 °F 82% 29.96 in 10.0 mi ENE 5.8 mph - N/A   Scattered Clouds
1:53 AM 73.9 °F - 68.0 °F 82% 29.96 in 10.0 mi ENE 8.1 mph - N/A   Scattered Clouds
2:53 AM 73.9 °F - 68.0 °F 82% 29.96 in 10.0 mi ENE 5.8 mph - N/A   Partly Cloudy
3:53 AM 73.0 °F - 66.9 °F 81% 29.98 in 10.0 mi NE 3.5 mph - N/A   Scattered Clouds
4:11 AM 73.4 °F - 66.2 °F 78% 30.03 in 10.0 mi Calm Calm - N/A   Mostly Cloudy
4:53 AM 73.9 °F - 68.0 °F 82% 29.98 in 10.0 mi NNE 4.6 mph - N/A   Overcast
5:49 AM 73.4 °F - 68.0 °F 83% 30.04 in 10.0 mi ENE 4.6 mph - N/A   Overcast
5:53 AM 73.9 °F - 68.0 °F 82% 29.98 in 10.0 mi ENE 5.8 mph - N/A   Overcast
6:53 AM 72.0 °F - 66.9 °F 84% 29.99 in 8.0 mi North 4.6 mph - N/A   Mostly Cloudy
7:53 AM 73.0 °F - 66.9 °F 81% 30.00 in 8.0 mi NNE 4.6 mph - N/A   Scattered Clouds
8:53 AM 75.9 °F - 68.0 °F 76% 30.01 in 10.0 mi ENE 5.8 mph - N/A   Scattered Clouds
9:53 AM 80.1 °F 82.9 °F 69.1 °F 69% 30.02 in 10.0 mi Calm Calm - N/A   Scattered Clouds
10:53 AM 84.0 °F 89.0 °F 71.1 °F 65% 30.03 in 10.0 mi ENE 4.6 mph - N/A   Scattered Clouds
11:53 AM 84.9 °F 89.4 °F 70.0 °F 61% 30.02 in 10.0 mi East 6.9 mph - N/A   Scattered Clouds
12:53 PM 87.8 °F 92.6 °F 69.8 °F 55% 30.06 in 10.0 mi East 9.2 mph - N/A   Scattered Clouds
1:53 PM 90.0 °F 94.5 °F 69.1 °F 50% 29.99 in 10.0 mi East 10.4 mph - N/A   Scattered Clouds
2:53 PM 90.0 °F 92.8 °F 66.9 °F 46% 29.96 in 10.0 mi East 11.5 mph - N/A   Scattered Clouds
3:53 PM 91.9 °F 94.5 °F 66.0 °F 42% 29.94 in 10.0 mi Variable 5.8 mph - N/A   Mostly Cloudy
4:53 PM 91.9 °F 94.5 °F 66.0 °F 42% 29.93 in 10.0 mi ENE 8.1 mph - N/A   Mostly Cloudy
5:53 PM 91.9 °F 94.1 °F 64.9 °F 41% 29.91 in 10.0 mi ESE 8.1 mph - N/A   Scattered Clouds
6:53 PM 90.0 °F 91.7 °F 64.9 °F 43% 29.91 in 10.0 mi East 11.5 mph - N/A   Partly Cloudy
7:53 PM 88.0 °F 89.3 °F 64.0 °F 45% 29.91 in 10.0 mi East 8.1 mph - N/A   Partly Cloudy
8:53 PM 84.9 °F 86.6 °F 64.9 °F 51% 29.91 in 10.0 mi East 5.8 mph - N/A   Clear
9:53 PM 84.9 °F 86.6 °F 64.9 °F 51% 29.93 in 10.0 mi ENE 5.8 mph - N/A   Clear
10:53 PM 81.0 °F 84.4 °F 70.0 °F 69% 29.95 in 10.0 mi ESE 8.1 mph - N/A   Clear
11:53 PM 79.0 °F - 71.1 °F 77% 29.97 in 10.0 mi ESE 3.5 mph - N/A   Clear